Location: Aurora Center
(43.5271°N, 98.5894°W)
Time: 01:29:47
(UTC-05:00)

BlueWalker 3 - Pass Details

Date: 27 June 2024
Orbit: 480 x 492 km, 53.2° (Epoch: 15 July)

Event Time Altitude Azimuth Distance (km) Brightness Sun altitude
Rises 22:28:16 0° 293° (WNW) 2,542 6.9 -10.3°
Reaches altitude 10° 22:30:57 10° 313° (NW) 1,661 6.2 -10.7°
Maximum altitude 22:33:37 18° 359° (N) 1,235 4.6 -11.0°
Drops below altitude 10° 22:36:17 10° 44° (NE) 1,658 4.6 -11.3°
Sets 22:38:58 0° 64° (ENE) 2,537 5.4 -11.6°
